Regional Weather Roundup
Issued by NWS Grand Forks, ND

Home | Current Version | Previous Version | Text Only | Print | Product List | Glossary On
Versions: 1 2 3 4 5 6 7 8 9 10 11 12 13 14 15 16 17 18 19 20 21 22 23 24 25 26 27 28 29 30 31 32 33 34 35 36 37 38 39 40 41 42 43 44 45 46 47 48 49 50
000
ASUS43 KFGF 291631
RWRFGF
PRAIRIE TO PINES  WEATHER ROUNDUP
NATIONAL WEATHER SERVICE EASTERN NORTH DAKOTA/GRAND FORKS ND
1100 AM CDT FRI AUG 29 2014

 **SATELLITE DATA USED TO AUGMENT SKY COVER AT AUTOMATED STATIONS**
 *****  WEATHER ACROSS EASTERN NORTH DAKOTA  *****

CITY           SKY/WX    TMP DP  RH WIND       PRES   REMARKS
GRAND FORKS    CLOUDY    67  64  90 S5        29.76R
GRAND FRKS AFB CLOUDY    66  66 100 SE2       29.77R
GRAND FRKS NWS   N/A     66 N/A N/A S2          N/A
DEVILS LAKE    PTSUNNY   70  61  73 N10       29.76S
FARGO          CLOUDY    69  64  84 CALM      29.76F
WAHPETON ARPT  CLOUDY    66  63  88 NW5       29.78F
$$

 ***** WEATHER ACROSS CENTRAL AND WESTERN NORTH DAKOTA  *****

CITY           SKY/WX    TMP DP  RH WIND       PRES   REMARKS
BISMARCK       MOSUNNY   75  60  59 NW16G24   29.86R
MINOT          CLOUDY    63  56  78 N14       29.89R
JAMESTOWN      CLOUDY    70  64  81 NW14      29.78S
MINOT AFB      PTSUNNY   64  57  77 N15       29.89R
GARRISON         N/A     63  60  90 NW10      29.89R
WILLISTON      CLOUDY    65  55  70 N15       29.97R
DICKINSON      CLOUDY    63  57  81 NW16G26   29.94R
HETTINGER      CLOUDY    65  52  62 NW22G30   29.95R
$$

 *****  OTHER AIRPORT OBSERVATIONS IN OUR AREA  *****

CITY           SKY/WX    TMP DP  RH WIND       PRES   REMARKS
WALHALLA         N/A     70  70 100 CALM      29.77R
GRAFTON AIRPOR CLOUDY    66  66 100 S5        29.76S FOG
VALLEY CITY AR CLOUDY    66  66 100 W13       29.79R
CANDO          CLOUDY    64  61  88 N16G31    29.80R
CAVALIER APRT  CLOUDY    68  64  88 S3        29.76S FOG
GWINNER        CLOUDY    66  66 100 NW3       29.81R
SHEYENNE NWR     N/A     69  66  90 CALM      29.95S
ROLLA          CLOUDY    57  57 100 N23G32    29.85R
 ***** THE ABOVE OBSERVATIONS ARE NON NWS ARE NOT QUALITY
       CONTROLLED AND MAY MIS-REPORT RAIN FOR SNOW...
$$

  *****  WEATHER ACROSS NORTHERN MINNESOTA  *****

CITY           SKY/WX    TMP DP  RH WIND       PRES   REMARKS
FLAG ISLAND    CLOUDY    66  63  88 S6        29.76S
WARROAD        CLOUDY    68  64  88 S6        29.78R
ROSEAU         PTSUNNY   70  63  78 SW3       29.78R
HALLOCK        CLOUDY    66  64  94 S3        29.76S
THF RVR FALLS  CLOUDY    68  64  88 SW3       29.78R
BAUDETTE       CLOUDY    65  64  97 VRB5      29.78F FOG
WASKISH        CLOUDY    64  63  94 CALM      29.80R FOG
CROOKSTON      CLOUDY    68  64  88 S6        29.78S
$$
  *****  WEATHER ACROSS CENTRAL AND WEST MINNESOTA  *****

CITY           SKY/WX    TMP DP  RH WIND       PRES   REMARKS
FOSSTON        CLOUDY    66  63  88 S3        29.79S
BEMIDJI        CLOUDY    65  64  94 CALM      29.80R
PARK RAPIDS    CLOUDY    65  64  97 CALM      29.79S
ELBOW LAKE     CLOUDY    67  65  93 W3        29.79R
WADENA         CLOUDY    64  64 100 CALM      29.78F
DETROIT LAKES  CLOUDY    66  64  94 S3        29.80S FOG
MOORHEAD       CLOUDY    70  70 100 SE5       29.77F
FERGUS FALLS   DRIZZLE   66  64  94 CALM      29.79S
MORRIS MN      CLOUDY    68  66  94 CALM      29.79R THUNDER
STAPLES        CLOUDY    64  64 100 CALM      29.78F
$$
  *****  WEATHER ELSEWHERE ACROSS MINNESOTA  *****

CITY           SKY/WX    TMP DP  RH WIND       PRES   REMARKS
DULUTH         LGT RAIN  61  59  93 SE6       29.80S FOG
INTRNTL FALLS  CLOUDY    67  60  78 SE8       29.80F
ELY            RAIN      59  57  94 E3        29.83F
CLOQUET        RAIN      63  61  94 CALM      29.80S
WHEATON        CLOUDY    64  64 100 CALM      29.80S
BRAINERD       LGT RAIN  64  64 100 NE3       29.79F FOG
HIBBING        LGT RAIN  63  60  90 SE5       29.82R
ALEXANDRIA     CLOUDY    68  65  90 W3        29.81R
SAINT CLOUD    CLOUDY    72  68  87 VRB3      29.76F
MINNEAPOLIS    CLOUDY    74  68  81 S8        29.80S
$$

  *****  WEATHER ACROSS SOUTH DAKOTA  *****

CITY           SKY/WX    TMP DP  RH WIND       PRES   REMARKS
SIOUX FALLS    CLOUDY    72  69  90 CALM      29.81R
BROOKINGS      NOT AVBL
WATERTOWN      CLOUDY    69  66  90 N6        29.81R
HURON          PTSUNNY   73  67  81 N9        29.81R
SISSETON         N/A     68  67  96 N7        29.79R
ABERDEEN       CLOUDY    66  66 100 CALM      29.80S
MITCHELL       CLOUDY    72  70  93 N7        29.82R
PIERRE         CLOUDY    65  65 100 W10       29.84R FOG
MOBRIDGE       PTSUNNY   69  66  90 NW18G26   29.83R
RAPID CITY     SUNNY     70  54  56 N24G30    29.99R
$$

  *****  SOME WEATHER IN NEARBY STATES *****

CITY           SKY/WX    TMP DP  RH WIND       PRES   REMARKS
GLASGOW MT     CLOUDY    61  54  77 N8        30.05S
GREAT FALLS MT SUNNY     59  50  72 E9        30.04F
CHEYENNE WY    MOSUNNY   67  44  43 N20G28    30.17R
SCOTTSBLUFF NE MOSUNNY   69  57  65 NW8       30.02S
OMAHA NE       LGT RAIN  73  68  84 S10       29.85R
DES MOINES IA  MOSUNNY   81  71  71 S14       29.83S
DAVENPORT IA   SUNNY     80  71  74 S12       29.92S
CHICAGO IL     CLOUDY    82  69  64 S13       29.98F
EAU CLAIRE WI  CLOUDY    69  67  93 S8        29.85S
LA CROSSE WI   PTSUNNY   77  69  76 S12       29.85R
$$

  *****  SOME NATIONAL WEATHER *****

CITY           SKY/WX    TMP DP  RH WIND       PRES   REMARKS
LA GUARDIA NY  MOSUNNY   74  49  41 NE10      30.19R
RALEIGH NC     PTSUNNY   81  68  64 NE7       30.14S
ATLANTA GA     MOSUNNY   89  56  32 CALM      30.09F
NEW ORLEANS LA PTSUNNY   88  75  65 E8        29.97R HX  97
OKLAHOMA CITY  PTSUNNY   76  66  71 SW9       29.95S
ALBUQUERQUE NM MOSUNNY   71  45  39 NW5       30.19S
SALT LAKE CITY MOSUNNY   72  48  42 S10       30.10S
LOS ANGELES CA MOSUNNY   72  63  73 SW5       29.89S
BOISE ID       SUNNY     73  40  30 CALM      29.99S
SEATTLE WA     PTSUNNY   62  54  74 S9        30.00S
$$

*** WEATHER ACROSS MANITOBA...SASKATCHEWAN AND ONTARIO ***
                ***ONTARIO***

CITY           SKY/WX    TMP DP  RH WIND       PRES   REMARKS
GERALDTON      CLOUDY    63  57  82 S6        29.90F
THUNDER BAY    CLOUDY    61  59  94 E6        29.88F
SIOUX LOOKOUT  LGT RAIN  63  61  94 S8        29.81S
TORONTO        PTSUNNY   70  55  60 S7        30.20S
BIG TROUT LK   SUNNY     61  54  77 NW3       29.74F
PICKLE LAKE    CLOUDY    64  61  88 S13       29.77S
DRYDEN         CLOUDY    63  61  94 S7        29.80F
KENORA         CLOUDY    66  63  88 SW8       29.78F
$$
                *** MANITOBA***

CITY           SKY/WX    TMP DP  RH WIND       PRES   REMARKS
BRANDON        PTSUNNY   59  54  82 N13G20    29.91
DAUPHIN        SUNNY     59  52  77 N12       29.94R
ISLAND LAKE    CLOUDY    57  54  88 W6        29.82R
PILOT MOUND      N/A     59  57  94 N17G26      N/A
THE PAS        MOSUNNY   57  43  58 NW10      29.96R
THOMPSON       PTSUNNY   55  45  67 N12       29.88R
WINNIPEG       LGT RAIN  63  61  94 N16       29.80R
LYNN LAKE      PTSUNNY   52  41  66 MISG      29.93R
CHURCHILL      PTSUNNY   52  43  71 NW18      29.73R
GILLAM         CLOUDY    52  48  87 N8        29.80R
$$
                ***SASKATCHEWAN***

CITY           SKY/WX    TMP DP  RH WIND       PRES   REMARKS
ESTEVAN        PTSUNNY   63  52  67 NE12      29.98
KINDERSLEY     MOSUNNY   59  48  67 S10       30.04S
LLOYDMINSTER   MOSUNNY   57  48  72 S13       29.98F
PRINCE ALBERT  MOSUNNY   55  39  54 NW8       30.05S
REGINA         SUNNY     61  54  77 NW6       30.02S
YORKTON        SUNNY     57  46  67 N14       29.99R
N. BATTLEFORD  SUNNY     57  46  67 SE10      30.05
LA RONGE       MOSUNNY   55  39  54 W9        30.02R
SASKATOON      SUNNY     57  41  54 E3        30.06S
SWIFT CURRENT  MOSUNNY   55  50  82 W5        30.05S
$$
NOTE: THESE ARE AUTOMATED STATIONS WITH LIMITED QUALITY CONTROL
      "FAIR" INDICATES FEW OR NO CLOUDS BELOW 12,000 FEET WITH NO
      SIGNIFICANT WEATHER AND/OR OBSTRUCTIONS TO VISIBILITY.
      SKY/WX - SKY CONDITION AND SIGNIFICANT WEATHER.
      TMP - AIR TEMPERATURE.    DP   - DEWPOINT TEMPERATURE.
      RH  - RELATIVE HUMIDITY.  PRES - PRESSURE.
      HX  - HEAT INDEX.         WCI  - WIND CHILL INDEX.
$



USA.gov is the U.S. government's official web portal to all federal, state and local government web resources and services.